Location: D?uga
(50.2667°N, 19.7833°E)
Time: 22:58:46
(UTC+00:00)

Cosmos 2360 Rocket - Pass Details

Date: 23 May 2024
Orbit: 832 x 846 km, 71.0° (Epoch: 22 June)

Event Time Altitude Azimuth Distance (km) Brightness Sun altitude
Rises 01:58:07 0° 324° (NW) 3,416 5.5 -6.5°
Reaches altitude 10° 02:00:48 10° 315° (NW) 2,477 4.6 -6.1°
Maximum altitude 02:05:44 32° 255° (WSW) 1,431 3.0 -5.6°
Drops below altitude 10° 02:10:39 10° 194° (SSW) 2,462 4.1 -5.0°
Sets 02:13:19 0° 185° (S) 3,391 4.9 -4.6°
